EHI
0 0 0 0 0 0 0 0 0 0 1 2 2 2 4 5 4 7 14 19 17 13 14 16 17 17 22 29 31 27 23 22 22 19 17 15 12 9 7 7 9 11 11 9
0 0 0 0 0 0 0 0 0 0 0 1 2 2 3 4 4 6 13 19 19 17 18 21 21 21 27 34 34 31 29 27 23 20 18 16 15 12 8 9 14 16 14 13
0 0 0 0 0 0 0 0 0 0 0 1 2 2 3 4 5 6 12 18 20 19 23 27 28 27 31 37 37 37 36 32 26 22 18 16 17 14 10 12 17 19 18 17
0 0 0 0 0 0 0 0 0 0 0 1 2 3 4 5 6 8 11 15 18 20 26 32 35 33 32 35 38 42 43 38 30 23 18 16 15 12 10 13 17 19 19 19
0 0 0 0 0 0 0 0 0 0 0 0 1 2 3 6 8 9 10 12 15 19 26 33 37 36 33 32 38 45 48 44 35 25 21 18 14 11 10 12 16 19 20 20
0 0 0 0 0 0 0 0 0 0 0 0 0 1 2 5 8 9 9 10 11 14 21 29 35 38 34 32 38 46 52 49 39 29 24 21 18 15 13 14 16 16 18 19
0 0 0 0 0 0 0 0 0 0 0 0 0 1 3 4 5 7 9 10 10 10 16 25 34 39 37 36 41 50 53 49 42 33 27 24 22 19 17 16 15 13 14 15
0 0 0 0 0 0 0 0 0 0 0 0 0 2 3 2 3 6 8 9 9 10 14 23 33 40 41 41 45 51 52 48 40 34 29 26 23 19 17 16 15 12 11 12
0 0 0 0 0 0 0 0 0 0 0 0 1 2 3 1 2 5 7 7 8 11 15 21 29 37 42 45 48 50 52 47 38 31 28 27 23 20 17 17 16 14 13 14
0 0 0 0 0 0 0 0 0 0 1 0 1 2 2 1 2 5 8 9 9 10 14 21 27 34 40 45 48 49 50 46 35 27 25 24 24 24 22 21 19 18 19 21
0 0 0 0 0 0 0 0 0 0 1 0 0 1 1 0 3 7 12 13 12 11 14 19 25 31 36 42 46 48 47 42 32 25 23 22 24 26 26 24 23 24 27 30
0 0 0 0 0 1 0 0 0 0 1 0 1 1 1 2 5 10 15 17 16 14 16 18 24 30 35 39 44 46 45 38 31 27 24 23 25 26 26 25 27 31 34 35
0 0 0 0 0 0 0 0 0 0 0 1 2 3 3 5 9 13 16 17 18 18 19 21 28 34 38 40 43 45 43 37 32 29 26 25 27 29 28 28 31 35 37 37
0 0 0 0 0 0 0 0 0 0 0 1 3 5 5 7 10 14 15 16 18 21 22 26 34 39 40 41 44 45 40 35 33 32 30 30 33 36 35 34 35 36 37 36
0 0 0 0 0 0 0 0 0 0 1 1 3 5 7 9 10 14 16 17 19 22 24 28 37 41 40 40 43 43 38 35 36 37 37 38 40 42 41 40 39 39 36 34
0 0 0 0 0 0 0 0 0 1 2 3 3 5 8 9 10 13 17 19 21 24 25 27 33 39 40 40 43 44 41 38 39 39 39 40 42 42 42 42 42 42 37 32
1 1 1 0 0 0 0 0 0 1 3 4 4 5 7 9 10 12 15 18 22 25 26 25 25 32 39 42 45 47 45 42 41 39 38 40 41 41 40 39 41 42 40 36
1 2 2 0 0 0 0 0 0 1 2 3 4 5 6 9 11 12 14 17 21 26 28 25 23 28 36 42 45 46 46 45 42 40 39 41 42 42 40 37 37 39 40 40
1 2 1 0 0 0 0 0 0 1 2 4 6 6 6 8 10 11 14 17 20 25 27 26 25 28 34 40 43 44 45 45 43 41 39 39 39 39 39 38 37 36 37 38
0 0 0 0 0 0 0 0 0 1 3 6 7 8 7 7 8 10 13 17 20 24 27 28 28 31 38 42 43 41 41 41 41 40 38 35 34 35 36 37 38 37 36 36
0 0 0 0 0 0 1 1 3 6 8 8 8 8 8 8 9 12 15 18 21 25 28 30 32 38 44 46 43 40 37 37 37 37 36 34 31 31 33 37 41 40 38 37
0 0 0 0 1 3 5 6 9 13 13 11 10 9 10 10 11 14 18 21 23 26 28 30 34 40 44 44 41 38 36 35 34 34 34 32 30 28 29 36 41 42 41 39
0 0 1 2 3 7 10 11 12 14 15 13 12 11 11 10 11 15 21 25 26 27 28 29 32 36 37 37 36 36 36 35 35 34 33 30 28 26 26 31 35 38 38 36
0 0 2 4 6 7 9 9 9 11 14 13 12 12 12 10 11 18 26 28 27 26 27 27 29 30 30 29 30 32 34 36 36 34 30 26 24 23 24 25 26 27 29 28
1 1 3 6 6 5 5 5 6 9 12 12 11 11 11 10 13 20 26 26 23 22 24 25 27 27 27 26 26 28 31 33 33 30 26 22 20 21 22 21 19 18 18 18
3 3 4 5 6 6 6 4 4 7 9 10 10 10 11 11 14 19 24 24 20 19 22 24 25 25 24 24 25 27 30 30 30 28 24 20 18 20 23 20 17 13 12 11
Wind_Speed
9 7 6 7 7 6 5 4 2 1 3 3 3 7 10 9 7 10 12 11 10 10 11 10 9 10 9 8 7 5 5 4 2 2 1 2 1 1 2 3 3 2 1 1
9 10 8 7 6 4 5 5 2 2 2 3 2 4 7 11 10 9 11 12 12 11 11 10 9 9 9 8 7 5 5 4 3 2 1 1 1 1 2 2 3 2 2 1
11 8 6 6 5 6 7 5 4 3 3 4 3 2 5 8 8 8 9 11 12 13 13 12 10 9 9 9 8 6 5 5 3 3 2 1 1 1 2 2 2 2 2 1
11 9 8 7 7 7 6 5 6 5 4 4 5 2 5 9 7 6 7 9 10 12 13 12 11 10 9 9 9 7 6 5 4 3 2 2 2 2 2 2 2 2 2 2
10 9 10 9 7 7 6 7 7 7 6 6 6 3 5 7 7 8 7 8 8 10 12 12 12 11 9 9 9 8 6 5 4 3 2 1 1 1 1 1 2 2 2 2
12 10 10 9 7 7 7 7 7 9 7 7 6 4 3 5 8 8 8 8 9 10 10 12 12 10 9 9 9 9 7 6 5 4 3 2 2 1 0 0 1 2 2 1
11 11 10 8 8 8 7 4 5 6 5 5 4 2 2 5 7 8 9 9 9 9 9 10 11 11 9 9 8 8 8 6 6 5 3 3 2 1 1 2 1 1 1 1
9 9 10 8 7 7 7 6 6 7 5 5 4 2 3 4 7 9 10 10 9 9 10 10 12 11 10 9 8 9 8 7 6 5 4 3 2 2 1 1 1 1 0 1
7 7 7 7 6 7 8 8 8 8 9 6 3 3 5 6 7 8 9 10 9 8 9 9 11 11 10 9 9 9 9 7 6 5 4 3 3 2 1 1 1 1 0 1
10 8 6 6 7 9 9 7 5 6 6 6 4 3 3 6 6 6 7 7 7 7 8 8 8 8 9 9 8 8 8 7 6 5 4 4 3 2 1 1 1 0 0 1
10 8 8 6 8 8 8 7 6 5 5 5 5 1 2 4 6 7 7 7 6 6 5 7 8 7 7 8 9 8 8 7 6 6 4 3 4 3 3 2 1 1 0 1
7 6 8 9 7 7 8 7 6 6 5 5 5 2 2 2 5 7 8 6 6 5 5 6 7 7 6 7 7 7 7 6 6 6 5 4 3 3 3 3 2 2 2 2
4 5 7 8 7 7 8 7 8 8 7 4 4 2 4 4 4 7 7 7 6 6 5 6 5 5 5 5 5 5 5 6 6 6 6 5 4 4 3 3 2 2 2 2
5 7 8 9 7 6 7 9 8 8 6 5 3 2 2 3 4 5 6 5 5 6 5 5 5 5 4 4 4 4 4 4 4 4 4 4 4 4 3 3 2 2 2 2
7 9 9 11 10 9 9 9 8 8 7 6 4 3 2 2 3 4 4 4 5 6 6 6 6 4 4 4 4 4 3 3 3 3 3 3 3 3 3 3 2 2 2 3
6 7 9 12 11 11 10 9 8 7 6 5 5 2 1 3 3 4 4 3 3 4 4 5 6 5 4 4 4 4 3 3 3 3 3 2 2 2 2 2 2 2 2 2
6 6 9 11 11 12 11 7 7 6 5 3 3 1 1 1 2 3 4 2 2 3 3 3 3 4 4 4 4 4 3 3 3 2 2 2 2 2 2 2 2 2 2 2
6 6 6 10 10 12 6 3 3 4 4 3 1 1 1 2 2 3 3 3 2 2 2 2 3 3 3 3 3 3 4 3 3 2 2 2 2 2 2 2 2 2 2 2
5 5 7 8 10 9 6 3 3 3 2 3 1 1 2 1 1 2 3 3 2 1 1 0 1 2 2 2 3 2 3 3 3 2 2 2 2 2 2 2 2 2 2 3
7 5 8 8 10 9 2 2 2 3 2 3 2 3 3 2 1 2 4 3 3 2 1 1 0 1 1 1 2 2 3 3 3 2 2 1 1 2 2 2 2 2 3 2
8 9 11 11 10 6 3 3 4 4 2 5 4 3 3 3 3 3 4 4 3 2 2 1 2 2 2 2 2 2 2 3 3 2 2 1 1 2 2 2 2 2 2 2
8 8 8 8 9 3 6 4 4 5 5 5 4 4 4 4 3 3 3 3 2 2 1 1 2 2 1 1 1 2 2 1 1 2 2 2 2 3 2 2 2 2 3 3
4 2 2 2 1 4 7 7 5 4 4 4 4 3 3 3 2 3 3 2 2 2 1 1 1 2 1 1 1 1 1 1 1 2 2 2 2 2 2 2 3 3 3 3
2 1 2 1 1 3 5 6 6 6 5 5 4 4 3 2 2 3 2 2 2 2 1 1 1 1 0 0 0 1 1 2 2 2 1 2 2 2 2 2 2 2 2 2
3 3 2 2 1 1 3 4 5 5 5 5 5 5 4 2 1 1 1 1 1 1 1 1 1 1 1 0 0 1 1 1 1 1 1 2 3 3 2 2 2 2 1 1
3 3 3 3 2 3 3 3 4 4 5 4 4 4 5 3 2 1 1 1 1 1 1 1 1 1 1 1 0 0 0 1 1 2 2 3 3 2 2 2 2 2 3 3
Wind_Direction
232 234 239 243 231 246 282 313 352 221 166 152 146 149 155 158 175 167 163 163 167 162 158 155 153 146 144 138 138 143 137 136 161 146 149 142 139 153 135 134 121 122 110 78
235 234 242 247 263 275 278 290 278 216 160 163 144 132 154 161 178 185 170 166 166 161 155 156 157 155 150 146 146 147 149 156 172 134 127 161 156 157 135 117 128 139 148 166
247 250 246 250 252 262 266 268 276 263 222 186 168 180 182 174 173 179 176 169 167 167 163 162 164 164 158 155 159 165 162 159 167 156 170 158 152 129 120 143 145 153 158 123
251 258 262 255 252 258 271 288 279 269 257 229 214 193 190 175 168 181 175 167 166 166 164 166 168 168 168 165 162 154 156 159 160 173 191 188 175 163 168 161 134 164 164 146
243 246 254 257 261 270 281 285 287 285 276 265 230 205 180 160 160 177 185 166 160 165 166 167 170 170 172 167 161 155 153 155 161 182 192 205 207 179 164 144 140 171 164 159
253 246 253 259 261 260 265 281 286 267 258 254 248 231 182 158 164 170 165 159 165 166 164 164 165 164 170 167 162 157 152 157 163 182 190 200 226 229 110 174 156 200 171 156
250 248 241 244 251 249 259 274 278 264 250 256 251 235 141 146 145 147 148 156 162 160 157 163 163 163 167 169 163 153 151 160 169 181 187 181 212 210 225 250 235 240 184 137
245 248 234 226 236 254 252 251 251 272 266 250 249 190 121 110 126 135 145 153 157 158 154 163 163 162 166 166 160 154 153 161 170 177 176 176 181 197 219 221 272 272 343 98
250 239 231 231 236 244 255 256 262 270 283 280 258 160 145 130 136 138 144 147 151 152 150 163 161 162 166 165 164 161 156 161 169 169 157 157 170 193 232 191 211 285 355 119
260 271 252 230 231 231 246 269 268 260 276 279 272 251 165 151 148 138 132 130 136 147 151 151 155 163 163 164 162 160 156 158 160 160 171 170 176 188 192 202 239 247 28 19
253 265 270 254 233 245 237 242 260 284 289 282 282 294 102 124 127 129 125 127 129 136 140 145 150 148 154 154 155 155 155 157 165 171 175 174 176 181 183 195 216 220 250 274
243 254 264 260 258 255 256 255 255 259 255 262 274 279 95 100 125 123 116 114 118 124 129 136 141 148 160 156 157 156 158 161 167 169 172 182 179 179 191 199 203 208 220 234
285 262 256 254 256 244 250 253 259 264 269 257 256 222 140 114 103 109 115 115 116 118 118 119 124 139 147 148 146 150 155 160 166 171 179 183 183 183 193 204 200 207 222 233
266 256 259 262 263 250 251 252 252 256 271 268 244 217 124 110 111 106 111 125 129 122 115 116 109 113 119 125 130 136 146 156 159 165 182 180 184 180 189 203 201 199 210 224
255 258 263 272 274 267 264 265 258 259 262 266 259 234 202 119 116 111 112 127 123 120 112 105 107 112 128 136 136 137 150 155 157 164 183 170 168 162 177 193 199 199 215 230
248 270 271 269 270 271 268 270 270 268 263 248 255 254 69 101 99 99 101 101 100 114 120 121 123 125 139 148 144 145 153 157 166 177 181 164 164 160 175 192 200 211 225 239
250 248 261 265 261 263 255 251 259 268 279 268 266 262 145 132 87 99 105 104 105 112 115 116 128 136 146 152 155 165 162 164 173 180 169 156 167 176 189 221 212 222 239 250
254 264 260 263 259 253 262 256 223 243 269 289 247 198 153 100 90 84 109 121 112 101 110 132 151 148 157 153 159 178 165 167 172 179 171 165 174 201 206 219 232 234 241 243
246 247 259 263 261 254 250 248 257 258 292 1 13 16 41 67 111 87 70 88 84 77 74 95 160 154 145 168 164 159 176 177 179 186 184 187 195 210 214 222 231 234 243 250
218 222 246 254 262 266 299 4 316 245 203 39 28 21 3 335 237 65 46 53 70 56 51 39 66 124 129 130 142 162 192 189 190 192 194 207 215 232 227 237 241 247 247 243
214 220 233 249 255 259 338 334 299 272 50 33 36 25 353 6 14 49 32 41 60 65 72 60 68 84 113 127 144 180 201 208 195 177 185 206 225 245 231 240 242 247 255 253
226 232 231 247 254 260 4 359 29 42 32 25 25 15 18 38 55 61 49 44 39 22 36 88 88 99 107 126 150 182 201 205 171 171 199 205 220 253 251 251 257 249 244 245
244 287 296 301 320 48 37 40 46 40 17 6 5 6 11 19 33 56 53 35 23 24 32 56 87 99 98 106 126 207 210 190 184 189 212 228 232 250 274 252 254 253 242 243
231 332 286 294 51 33 36 28 11 6 3 355 352 350 359 355 22 41 50 34 27 27 26 29 63 99 56 49 163 258 242 199 215 220 227 234 237 246 256 252 252 256 268 273
310 286 266 240 222 322 356 7 356 357 360 353 346 347 349 356 18 29 65 58 27 15 17 10 24 53 47 27 230 236 261 215 216 243 248 252 252 244 248 246 267 263 276 269
307 308 285 279 330 320 335 352 350 351 349 338 330 334 338 346 348 356 45 66 53 355 20 21 23 43 49 44 318 262 273 232 219 248 261 267 270 262 246 239 245 257 238 225